Change the Weather History Date:

Friday, January 10, 2014

  Actual Average Record
Temperature  
Mean Temperature 30 °F -  
Max Temperature 40 °F 42 °F 60 °F (2005)
Min Temperature 19 °F 19 °F -4 °F (2011)
Degree Days  
Heating Degree Days 36    
Moisture  
Dew Point 5 °F    
Average Humidity 36    
Maximum Humidity 68    
Minimum Humidity 21    
Precipitation  
Precipitation 0.01 in - - ()
Sea Level Pressure  
Sea Level Pressure 29.72 in    
Wind  
Wind Speed 17 mph (NNW)    
Max Wind Speed 31 mph    
Max Gust Speed 45 mph    
Visibility 10 miles    
Events      
Averages and records for this station are not official NWS values.
T = Trace of Precipitation, MM = Missing Value Source: NWS Daily Summary

Daily Weather History Graph

Daily Weather History Graph

Search for Another Location

Airport or City:

Trip Planner

Search our weather history database for the weather conditions in past years. The results will help you decide how hot, cold, wet, or windy it might be!

Date:

Astronomy

Jan. 10, 2014 Rise Set
Actual Time 7:17 AM MST 4:56 PM MST
Civil Twilight 6:48 AM MST 5:25 PM MST
Nautical Twilight 6:15 AM MST 5:58 PM MST
Astronomical Twilight 5:43 AM MST 6:30 PM MST
Moon 1:01 PM MST (1/10) 2:28 AM MST (1/10)
Length of Visible Light 10h 37m
Length of Day
9h 38m
Waxing Gibbous, 75% of the Moon is Illuminated
Jan 10
Waxing Gibbous
Jan 15
Full
Jan 23
Last Quarter
Jan 30
New
Feb 6
First Quarter

Hourly Weather History & Observations

Time (MST) Temp. Windchill Dew Point Humidity Pressure Visibility Wind Dir Wind Speed Gust Speed Precip Events Conditions
12:58 AM 34.3 °F 23.5 °F 12.6 °F 41% 29.60 in 10.0 mi West 18.4 mph 28.8 mph N/A   Clear
1:04 AM 33.8 °F 24.8 °F 14.0 °F 44% 29.64 in 10.0 mi NNW 12.7 mph 24.2 mph N/A   Clear
1:58 AM 30.4 °F 19.1 °F 16.9 °F 57% 29.62 in 10.0 mi NNE 16.1 mph - N/A   Clear
2:13 AM 28.4 °F 17.5 °F 17.6 °F 64% 29.67 in 10.0 mi NNW 13.8 mph - N/A   Clear
2:21 AM 30.2 °F 16.5 °F 12.2 °F 47% 29.67 in 10.0 mi WNW 24.2 mph 38.0 mph N/A   Clear
2:55 AM 30.2 °F 18.1 °F 1.4 °F 29% 29.65 in 10.0 mi NW 18.4 mph 38.0 mph N/A   Clear
2:58 AM 30.0 °F 18.7 °F 1.9 °F 30% 29.64 in 10.0 mi NW 16.1 mph 38.0 mph N/A   Clear
3:49 AM 28.4 °F 15.8 °F -0.4 °F 29% 29.67 in 10.0 mi NNW 18.4 mph 35.7 mph N/A   Clear
3:58 AM 28.4 °F 16.6 °F -1.3 °F 28% 29.68 in 10.0 mi NNW 16.1 mph 31.1 mph N/A   Clear
4:10 AM 28.4 °F 15.4 °F -2.2 °F 27% 29.67 in 10.0 mi WNW 19.6 mph 25.3 mph N/A   Clear
4:58 AM 27.3 °F 13.3 °F -2.4 °F 28% 29.68 in 10.0 mi North 21.9 mph 29.9 mph N/A   Clear
5:40 AM 26.6 °F 15.2 °F -2.2 °F 29% 29.64 in 10.0 mi NW 13.8 mph 28.8 mph N/A   Clear
5:58 AM 27.3 °F 11.0 °F -3.3 °F 27% 29.64 in 10.0 mi West 31.1 mph 44.9 mph 0.01 in   Clear
6:58 AM 26.1 °F 10.7 °F -3.3 °F 28% 29.69 in 10.0 mi West 25.3 mph 39.1 mph N/A   Clear
7:58 AM 27.5 °F 15.0 °F -3.5 °F 26% 29.65 in 10.0 mi WNW 17.3 mph 36.8 mph N/A   Clear
8:58 AM 30.7 °F 20.4 °F -1.7 °F 25% 29.69 in 10.0 mi WNW 13.8 mph 32.2 mph N/A   Clear
9:40 AM 32.0 °F 20.5 °F -0.4 °F 25% 29.69 in 10.0 mi NNW 18.4 mph 24.2 mph N/A   Clear
9:58 AM 34.3 °F 22.0 °F 0.3 °F 24% 29.72 in 10.0 mi NW 24.2 mph 31.1 mph N/A   Clear
10:58 AM 36.1 °F 24.7 °F 2.5 °F 24% 29.69 in 10.0 mi WNW 23.0 mph 29.9 mph N/A   Clear
11:58 AM 38.5 °F 28.3 °F 1.6 °F 21% 29.65 in 10.0 mi WNW 20.7 mph 31.1 mph N/A   Clear
12:51 PM 39.2 °F 28.7 °F 3.2 °F 22% 29.65 in 10.0 mi NNW 23.0 mph 32.2 mph N/A   Partly Cloudy
12:58 PM 40.1 °F 29.5 °F 2.7 °F 21% 29.63 in 10.0 mi NNW 25.3 mph 35.7 mph N/A   Clear
1:58 PM 39.0 °F 28.8 °F 4.8 °F 24% 29.67 in 10.0 mi WNW 21.9 mph 34.5 mph N/A   Clear
2:33 PM 39.2 °F 30.2 °F 5.0 °F 24% 29.67 in 10.0 mi NNW 17.3 mph 28.8 mph N/A   Clear
2:58 PM 38.5 °F 28.6 °F 5.4 °F 25% 29.69 in 10.0 mi NNW 19.6 mph 35.7 mph N/A   Clear
3:58 PM 36.0 °F 24.7 °F 5.5 °F 28% 29.77 in 10.0 mi NW 21.9 mph 34.5 mph N/A   Clear
4:58 PM 33.4 °F 24.3 °F 6.8 °F 33% 29.81 in 10.0 mi NNW 12.7 mph - N/A   Clear
5:58 PM 29.8 °F 23.9 °F 7.0 °F 38% 29.85 in 10.0 mi North 5.8 mph - N/A   Clear
6:58 PM 28.0 °F 20.8 °F 10.0 °F 47% 29.87 in 10.0 mi ENE 6.9 mph - N/A   Clear
7:58 PM 23.2 °F 16.0 °F 11.5 °F 61% 29.91 in 10.0 mi ENE 5.8 mph - N/A   Clear
8:58 PM 22.8 °F 14.5 °F 12.7 °F 65% 29.92 in 10.0 mi NNE 6.9 mph - N/A   Clear
9:58 PM 23.0 °F 17.0 °F 12.2 °F 63% 29.93 in 10.0 mi Variable 4.6 mph - N/A   Clear
10:58 PM 19.4 °F 9.5 °F 10.4 °F 68% 29.95 in 10.0 mi NNE 8.1 mph - N/A   Clear
11:58 PM 30.2 °F 20.8 °F 8.6 °F 40% 29.89 in 10.0 mi North 11.5 mph - N/A   Clear